EW2973 Weather Reports


Display with metric or nautical units.
time (UTC)temp
F
wind
direction
speed
MPH
gust
MPH
rain 1hr
in
rain 24hr
in
rain mn
in
humidity
%
barometer
mb
20260507083020 38 360 0.0 0.0 0.00 0.04 0.00 91 1014.3
20260507081513 38 360 0.0 0.0 0.00 0.06 0.00 90 1014.4
20260507080026 38 360 0.0 0.0 0.00 0.07 0.00 90 1014.5
20260507074525 38 360 0.0 0.0 0.00 0.07 0.00 90 1014.5
20260507073025 39 360 0.0 0.0 0.00 0.07 0.00 91 1014.4
20260507071526 38 360 0.0 0.0 0.00 0.08 0.00 90 1014.5
20260507070018 39 360 0.0 0.0 0.00 0.09 0.00 90 1014.5
20260507064516 39 360 0.0 0.0 0.00 0.11 0.00 90 1014.6
20260507063030 39 360 0.0 0.0 0.00 0.13 0.00 90 1014.6
20260507061529 40 360 0.0 0.0 0.00 0.14 0.00 89 1014.7
20260507060026 40 360 0.0 0.0 0.00 0.16 0.00 89 1014.7
20260507054524 40 360 0.0 0.0 0.00 0.17 0.00 89 1015.0
20260507053022 40 360 0.0 0.0 0.00 0.19 0.00 88 1015.0
20260507051520 41 360 0.0 0.0 0.00 0.21 0.00 87 1015.1
20260507050013 41 360 0.0 0.0 0.00 0.21 0.00 87 1015.1
20260507044528 41 360 0.0 0.0 0.00 0.21 0.00 86 1015.1
20260507043025 42 360 0.0 0.0 0.00 0.21 0.00 86 1014.9
20260507041538 42 360 0.0 0.0 0.00 0.21 0.00 84 1015.0
20260507040024 43 360 0.0 0.0 0.00 0.21 0.00 83 1015.0
20260507034522 44 360 0.0 0.0 0.00 0.22 0.21 81 1015.1
20260507033020 44 360 0.0 0.0 0.00 0.25 0.21 76 1015.2
20260507031529 45 360 0.0 0.0 0.00 0.32 0.21 75 1015.4
20260507030027 46 360 0.0 0.0 0.00 0.39 0.21 71 1015.5
20260507024526 47 360 0.0 0.0 0.00 0.41 0.21 70 1015.4
20260507023025 48 360 0.0 0.0 0.00 0.44 0.21 64 1015.2
20260507021524 49 360 0.0 0.0 0.00 0.48 0.21 67 1015.0
20260507020027 49 360 0.0 0.0 0.00 0.52 0.21 66 1014.8
20260507014530 49 360 0.0 0.0 0.00 0.56 0.21 69 1014.7
20260507013041 49 360 0.0 0.0 0.00 0.58 0.21 66 1014.8
20260507011535 50 360 0.0 0.0 0.00 0.60 0.21 62 1014.6
20260507010032 50 360 0.0 0.0 0.00 0.60 0.21 63 1014.3
20260507004526 51 360 0.0 0.0 0.00 0.61 0.21 57 1014.2
20260507003023 52 360 0.0 2.0 0.00 0.63 0.21 56 1014.1
20260507001519 53 9 0.0 0.0 0.00 0.63 0.21 56 1014.0
20260507000030 53 5 0.0 2.0 0.00 0.64 0.21 54 1013.9
20260506234516 53 9 0.0 3.0 0.00 0.64 0.21 54 1013.7
20260506233012 54 9 1.0 4.0 0.00 0.64 0.21 53 1013.7
20260506231525 54 352 0.0 3.0 0.00 0.64 0.21 52 1014.1
20260506230024 54 352 0.0 2.0 0.00 0.64 0.21 50 1014.0
20260506224524 54 11 1.0 4.0 0.00 0.65 0.21 51 1014.2
20260506223020 54 5 0.0 2.0 0.00 0.67 0.21 52 1014.3
20260506221517 55 11 1.0 6.0 0.00 0.72 0.21 51 1014.0
20260506220016 55 5 0.0 4.0 0.00 0.75 0.21 51 1013.7
20260506214527 55 352 0.0 5.0 0.00 0.91 0.21 53 1013.5
20260506213026 55 340 3.0 10.0 0.00 0.91 0.21 50 1013.3
20260506211524 55 15 2.0 4.0 0.00 0.91 0.21 50 1013.2
20260506210021 56 334 2.0 4.0 0.00 0.91 0.21 51 1013.3
20260506204524 56 352 0.0 4.0 0.00 0.91 0.21 53 1013.2
20260506203022 56 336 3.0 5.0 0.00 0.91 0.21 50 1013.0
20260506201514 56 11 0.0 5.0 0.00 0.91 0.21 54 1012.9
20260506200026 57 308 1.0 5.0 0.00 0.91 0.21 50 1012.8
20260506194526 58 352 2.0 10.0 0.00 0.91 0.21 52 1012.8
20260506193025 58 9 2.0 9.0 0.00 0.91 0.21 49 1012.8
20260506191524 59 15 2.0 8.0 0.00 0.91 0.21 48 1012.6
20260506190024 60 26 0.0 8.0 0.00 0.91 0.21 54 1012.6
20260506184520 60 314 1.0 7.0 0.00 0.91 0.21 50 1012.7
20260506183023 58 340 1.0 8.0 0.00 0.91 0.21 52 1012.8
20260506181531 58 341 3.0 5.0 0.00 0.91 0.21 50 1012.8
20260506180034 58 341 2.0 6.0 0.00 0.91 0.21 53 1012.8
20260506174529 58 352 1.0 4.0 0.00 0.91 0.21 56 1013.0
20260506173026 58 342 2.0 5.0 0.00 0.91 0.21 54 1012.9
20260506171538 58 325 3.0 6.0 0.00 0.91 0.21 55 1012.9
20260506170024 57 340 4.0 9.0 0.00 0.91 0.21 56 1012.9
20260506164528 56 15 3.0 9.0 0.00 0.91 0.21 54 1013.0
20260506163031 56 345 1.0 7.0 0.00 0.91 0.21 57 1013.2
20260506161536 55 347 2.0 5.0 0.00 0.91 0.21 60 1013.0
20260506160028 54 29 2.0 4.0 0.00 0.91 0.21 65 1012.8
20260506154526 53 5 1.0 5.0 0.00 0.91 0.21 64 1012.6
20260506153024 52 9 1.0 5.0 0.00 0.91 0.21 69 1012.3
20260506151520 51 16 2.0 8.0 0.00 0.91 0.21 71 1012.2
20260506150030 50 49 1.0 5.0 0.00 0.91 0.21 74 1012.2
20260506144516 50 13 3.0 6.0 0.00 0.91 0.21 75 1012.3
20260506143011 49 5 2.0 5.0 0.00 0.91 0.21 77 1011.8
20260506141510 48 13 1.0 5.0 0.00 0.91 0.21 81 1011.6
20260506140010 47 352 3.0 8.0 0.00 0.91 0.21 82 1011.6
20260506134555 47 16 4.0 8.0 0.00 0.91 0.21 83 1011.4
20260506133022 47 346 3.0 6.0 0.00 0.91 0.21 86 1010.9
20260506131526 47 5 1.0 3.0 0.00 0.91 0.21 89 1011.2
20260506130018 46 342 1.0 5.0 0.00 0.91 0.21 86 1011.1
20260506124516 47 337 2.0 3.0 0.00 0.91 0.21 89 1011.0
20260506123010 47 352 1.0 4.0 0.00 0.91 0.21 93 1010.1
20260506121510 46 352 1.0 2.0 0.00 0.91 0.21 94 1010.0
20260506120025 46 5 1.0 3.0 0.00 0.91 0.21 94 1010.2
20260506114533 46 352 0.0 0.0 0.00 0.91 0.21 94 1010.3
20260506113026 46 352 0.0 3.0 0.00 0.91 0.21 94 1009.8
20260506111518 46 360 1.0 5.0 0.00 0.91 0.21 93 1009.1
20260506110018 46 352 2.0 4.0 0.00 0.91 0.21 94 1008.9
20260506104510 46 334 1.0 5.0 0.00 0.91 0.21 94 1009.3
20260506103028 46 360 2.0 3.0 0.01 0.91 0.21 93 1009.1
20260506101526 46 351 1.0 4.0 0.01 0.91 0.21 93 1008.6
20260506100031 45 5 2.0 4.0 0.01 0.91 0.21 93 1008.0
20260506094519 45 17 0.0 5.0 0.02 0.91 0.21 93 1007.7
20260506093017 46 15 2.0 7.0 0.03 0.90 0.20 93 1008.0
20260506091515 46 15 2.0 4.0 0.05 0.90 0.20 94 1008.1
20260506090012 46 343 3.0 5.0 0.06 0.90 0.20 94 1007.8
20260506084528 46 352 3.0 7.0 0.05 0.89 0.19 93 1008.3